Location: *
(49.4547°N, 7.9131°E)
Time: 11:46:43
(UTC+00:00)

Ariane Rocket - Pass Details

Date: 22 September 2019
Orbit: 761 x 769 km, 98.8° (Epoch: 18 October)

Event Time Altitude Azimuth Distance (km) Brightness Sun altitude
Rises 18:51:32 0° 181° (S) 3,214 6.1 -14.3°
Reaches altitude 10° 18:53:55 10° 187° (S) 2,294 5.4 -14.7°
Maximum altitude 18:58:46 46° 261° (W) 1,024 4.1 -15.4°
Drops below altitude 10° 19:03:40 10° 334° (NNW) 2,316 6.1 -16.2°
Sets 19:06:05 0° 341° (NNW) 3,249 6.9 -16.6°
